Temperature
6 4 4 4 5 6 5 5 5 5 4 4 3 3 3 2 1 1 1 2 2 3 4 4 5 5 5 5 5 5 5 5 5 5 5 5 5 5 5 5 5 5 5 5
4 4 4 5 5 5 5 5 4 4 4 3 2 2 2 1 1 1 1 1 2 2 3 3 4 4 4 4 4 5 5 5 5 5 4 4 4 4 4 4 4 4 4 4
4 4 4 5 4 5 4 4 4 4 3 3 2 3 2 1 1 1 2 2 2 2 2 3 3 3 3 4 4 4 4 4 4 4 4 4 4 4 4 4 4 3 3 3
3 3 4 4 4 4 4 4 4 3 3 2 2 3 3 1 0 0 0 1 1 2 2 3 3 3 3 3 3 3 3 3 3 3 3 3 3 3 3 3 3 3 3 3
3 3 3 3 3 3 3 3 3 2 2 1 1 2 2 1 1 1 0 1 1 2 2 2 2 3 3 3 3 3 2 2 3 3 3 3 3 3 3 2 2 2 2 2
2 2 2 2 2 3 2 2 1 0 1 2 1 1 2 0 1 1 1 1 1 1 1 1 2 2 2 2 2 2 2 2 2 2 2 2 2 2 2 2 2 2 2 2
2 2 1 2 2 2 2 2 2 2 1 1 0 1 1 0 -0 -0 0 1 1 0 0 1 1 1 1 1 1 1 1 1 1 1 1 1 1 1 1 1 1 1 1 1
2 2 1 1 1 1 1 2 2 2 2 1 -1 -1 0 -1 -1 -1 -1 -1 -0 -0 -0 -0 0 0 0 0 1 1 1 1 1 1 1 1 1 1 1 0 0 0 0 0
1 1 1 0 0 1 1 0 1 0 -0 -0 -0 -2 -2 -1 -2 -2 -2 -2 -1 -1 -1 -1 -0 -0 -0 -0 -0 -0 0 0 0 0 0 -0 -0 -0 -0 -0 -1 -1 -1 -1
0 0 -0 -0 0 -0 0 -0 -1 0 1 1 -0 -1 -0 -0 -1 -2 -3 -3 -2 -2 -1 -1 -1 -1 -1 -1 -1 -1 -1 -0 -0 -1 -1 -1 -1 -1 -1 -1 -1 -1 -1 -2
-1 -1 -1 -1 -1 -1 -1 -1 -1 -1 -1 -0 -0 0 -1 -1 -2 -2 -3 -2 -2 -2 -2 -2 -1 -1 -1 -1 -1 -1 -1 -1 -1 -1 -1 -1 -2 -2 -2 -2 -2 -2 -2 -2
-2 -2 -2 -2 -2 -2 -2 -2 -2 -1 -1 -3 -2 -1 -2 -3 -3 -3 -3 -3 -3 -2 -2 -2 -2 -2 -2 -2 -2 -2 -2 -2 -2 -2 -2 -2 -2 -2 -2 -3 -3 -3 -3 -3
-3 -3 -2 -1 -2 -3 -3 -4 -4 -3 -3 -4 -3 -1 -2 -4 -4 -4 -4 -3 -3 -3 -3 -3 -3 -2 -2 -2 -2 -2 -2 -2 -3 -3 -3 -3 -3 -3 -3 -3 -3 -3 -3 -4
-2 -4 -2 -1 -1 -3 -4 -4 -5 -4 -3 -4 -4 -2 -2 -3 -4 -4 -4 -4 -3 -3 -3 -3 -3 -3 -3 -3 -3 -3 -3 -3 -3 -3 -3 -4 -4 -4 -4 -4 -4 -4 -4 -4
-3 -4 -4 -4 -4 -4 -4 -4 -5 -5 -4 -3 -3 -4 -3 -4 -5 -5 -4 -4 -4 -4 -4 -4 -4 -4 -3 -3 -3 -3 -3 -4 -4 -4 -4 -4 -4 -4 -5 -5 -5 -5 -5 -5
-5 -5 -5 -5 -4 -5 -5 -5 -5 -5 -5 -5 -4 -4 -4 -4 -5 -5 -5 -6 -6 -5 -5 -5 -5 -5 -4 -4 -4 -4 -4 -4 -4 -5 -5 -5 -5 -5 -5 -5 -5 -6 -6 -6
-6 -6 -5 -4 -5 -5 -4 -5 -5 -6 -6 -6 -4 -4 -5 -6 -6 -6 -6 -6 -6 -6 -6 -5 -5 -5 -5 -5 -5 -5 -5 -5 -5 -5 -5 -5 -5 -6 -6 -6 -6 -6 -6 -7
-6 -6 -6 -6 -5 -4 -3 -5 -6 -6 -6 -7 -6 -6 -6 -6 -6 -6 -6 -6 -6 -6 -6 -6 -6 -5 -6 -6 -6 -6 -6 -6 -6 -6 -6 -6 -6 -6 -6 -7 -7 -7 -7 -7
-7 -6 -6 -6 -6 -5 -5 -6 -7 -7 -6 -7 -8 -7 -7 -7 -7 -6 -5 -6 -6 -6 -6 -6 -6 -6 -6 -6 -6 -6 -6 -6 -6 -6 -7 -7 -7 -7 -7 -7 -7 -7 -8 -8
-8 -7 -7 -7 -5 -5 -4 -6 -7 -7 -6 -7 -8 -8 -8 -8 -8 -7 -6 -6 -6 -6 -7 -7 -6 -7 -7 -7 -7 -7 -7 -7 -7 -7 -7 -8 -8 -8 -8 -8 -8 -8 -8 -8
-8 -8 -7 -7 -6 -6 -6 -7 -7 -5 -4 -6 -7 -7 -8 -9 -8 -7 -7 -7 -7 -7 -7 -7 -7 -7 -7 -8 -8 -8 -8 -8 -8 -8 -8 -8 -8 -8 -8 -8 -9 -9 -9 -9
-8 -8 -8 -8 -7 -5 -7 -8 -7 -6 -6 -6 -7 -7 -8 -8 -8 -8 -8 -8 -8 -8 -8 -8 -8 -8 -8 -8 -8 -8 -8 -8 -9 -9 -9 -9 -9 -9 -9 -9 -9 -9 -9 -10
-9 -8 -8 -7 -5 -6 -7 -7 -6 -6 -7 -7 -7 -7 -8 -8 -8 -8 -8 -8 -8 -9 -9 -9 -9 -9 -9 -9 -9 -9 -9 -9 -9 -9 -9 -9 -9 -9 -10 -10 -10 -10 -10 -10
-10 -10 -9 -9 -8 -8 -7 -7 -7 -7 -7 -7 -8 -8 -8 -9 -9 -9 -9 -9 -9 -9 -9 -10 -10 -10 -9 -10 -10 -10 -10 -10 -10 -10 -10 -10 -10 -10 -10 -10 -10 -11 -11 -11
-9 -11 -10 -10 -9 -9 -7 -7 -7 -7 -7 -8 -8 -8 -9 -9 -9 -10 -10 -10 -10 -10 -10 -10 -10 -10 -10 -10 -10 -10 -11 -11 -11 -11 -11 -11 -11 -11 -11 -11 -11 -11 -11 -11
-11 -11 -10 -8 -8 -9 -7 -6 -7 -7 -8 -8 -8 -9 -9 -9 -10 -10 -10 -10 -10 -11 -11 -11 -11 -11 -11 -11 -11 -11 -11 -11 -11 -12 -12 -12 -12 -12 -12 -12 -12 -12 -12 -12
Wind_Speed
3 4 3 7 7 3 3 4 5 5 2 3 7 10 9 4 3 4 5 5 5 5 3 2 2 2 2 2 3 3 4 3 3 3 2 2 2 2 3 4 4 4 5 5
4 3 5 2 2 2 2 3 5 4 1 2 5 9 8 5 5 6 7 7 7 4 2 2 2 2 3 3 3 3 4 4 3 3 2 2 2 2 2 3 3 4 4 4
5 2 1 2 1 2 4 5 5 4 3 1 4 7 5 4 3 4 5 6 6 7 6 5 4 4 3 3 4 3 3 4 3 3 3 3 3 2 2 1 2 3 3 3
2 3 0 1 1 3 5 4 4 3 1 4 0 6 6 4 4 5 6 6 7 6 6 6 6 5 5 4 3 3 3 3 3 4 4 5 3 2 1 1 1 1 2 2
2 1 0 2 3 3 4 1 1 1 2 3 2 4 8 2 5 7 6 7 7 6 6 7 7 6 4 4 3 3 3 3 3 4 5 5 3 2 2 1 1 1 1 2
2 1 0 2 1 2 2 3 3 3 3 4 6 6 7 4 5 6 5 5 5 4 4 4 3 3 3 3 3 3 4 3 3 3 4 4 4 3 3 2 1 0 0 1
3 1 2 1 2 2 3 3 3 3 2 7 2 5 8 5 4 4 5 4 2 2 2 3 4 4 4 4 4 4 4 3 3 3 3 3 4 4 4 3 2 2 1 0
2 4 1 1 1 2 2 4 5 4 5 5 2 6 7 4 4 4 4 3 1 1 2 3 3 4 4 5 5 4 4 4 4 3 3 3 3 3 2 2 2 2 2 2
2 4 2 2 2 2 2 3 3 3 1 4 6 6 8 3 5 5 4 3 2 2 2 2 2 2 3 4 4 5 4 3 3 3 2 2 2 2 2 2 2 2 1 1
3 4 3 2 2 2 1 3 3 3 3 6 6 6 5 6 6 5 4 4 3 2 1 1 1 2 2 3 2 3 4 4 3 3 2 2 2 2 2 2 2 2 2 2
1 2 3 2 2 3 1 2 2 2 3 4 5 7 4 4 3 4 5 4 3 2 2 2 1 1 1 1 2 2 3 3 3 3 2 2 2 1 1 2 2 2 2 2
1 2 3 5 2 1 2 3 4 3 4 4 4 8 2 2 3 4 5 5 3 2 2 1 1 0 0 1 1 2 2 3 3 3 2 2 2 1 2 2 2 2 2 2
3 3 2 5 2 2 1 1 2 2 2 4 5 8 2 3 4 4 5 5 3 3 2 2 1 1 1 1 1 1 2 2 2 3 3 2 2 2 2 2 2 2 2 2
3 3 5 7 6 3 4 4 3 4 4 6 10 11 9 7 7 7 6 5 3 3 2 2 2 2 2 2 2 2 2 2 2 3 3 3 3 3 3 2 2 2 2 2
3 3 5 7 6 4 6 7 6 9 9 10 11 11 12 8 7 6 5 4 4 4 4 3 3 3 3 2 2 2 2 2 3 3 3 4 3 3 2 2 2 2 2 3
2 2 1 5 4 5 8 9 9 10 9 11 12 14 9 6 4 5 4 4 5 5 5 4 4 3 3 3 3 3 3 3 3 3 4 3 3 3 3 3 3 2 2 3
2 3 1 5 3 4 9 9 10 7 8 8 12 12 4 5 5 5 5 5 6 6 6 5 4 4 4 4 4 4 3 2 3 3 3 3 3 3 3 3 2 3 3 2
5 4 2 2 2 7 7 2 6 8 9 9 8 7 5 6 6 5 4 5 6 6 5 5 4 5 4 3 3 3 2 2 2 2 2 2 3 3 3 3 3 3 3 3
5 5 3 2 4 9 8 3 4 5 7 6 9 9 5 3 4 4 2 3 4 4 4 4 4 4 3 3 2 1 1 1 1 2 2 3 3 3 3 4 4 3 3 3
2 3 3 3 4 7 6 2 2 2 6 4 5 7 3 1 2 4 2 2 3 4 3 3 3 2 2 2 1 0 1 1 2 3 3 2 3 3 4 4 4 3 3 4
2 2 5 6 7 8 6 1 3 3 6 2 4 5 4 5 5 3 3 4 3 3 3 3 2 2 2 2 0 1 1 3 3 2 2 2 2 3 4 3 3 3 3 3
7 5 6 5 6 9 3 5 6 6 1 1 2 3 4 5 5 5 4 4 4 4 3 2 2 3 3 1 0 1 3 3 2 1 1 2 2 2 2 3 3 3 3 3
7 8 6 9 8 3 4 6 4 1 2 2 2 3 3 4 5 5 4 4 4 3 3 2 2 3 3 2 1 2 4 2 1 1 2 2 2 2 2 3 3 3 3 3
4 2 4 6 8 6 5 5 3 3 4 4 3 3 3 5 6 6 5 5 4 3 3 2 2 3 4 3 3 3 3 2 1 1 2 2 2 2 2 2 3 3 3 4
5 4 4 7 7 6 5 6 6 5 4 3 3 3 4 5 6 5 5 5 4 4 3 2 2 3 4 4 4 3 2 1 1 2 2 2 2 2 3 3 3 4 4 5
4 6 7 8 6 5 6 4 4 5 5 5 4 4 4 5 5 5 5 4 3 3 3 3 3 4 4 4 4 4 2 1 2 2 2 2 2 2 2 3 4 6 6 8
Wind_Direction
52 82 209 220 209 210 176 204 246 259 268 212 241 256 262 239 219 235 236 234 238 237 226 186 164 136 131 135 141 152 149 143 133 135 140 133 119 94 71 62 72 82 82 84
55 252 254 237 193 209 215 244 261 286 313 236 273 272 264 229 220 223 224 226 229 234 235 214 187 162 165 166 163 159 162 156 148 146 141 128 122 113 88 60 60 71 83 85
186 257 317 146 177 214 232 221 240 255 334 346 323 294 265 249 233 245 237 232 225 216 217 215 200 193 182 181 180 175 170 158 147 129 113 101 84 75 67 55 43 38 68 88
227 300 20 138 207 192 251 245 234 240 270 280 257 285 280 262 272 265 253 243 236 228 220 212 202 198 197 197 182 171 163 153 148 140 142 142 148 150 166 166 114 47 65 75
262 320 112 208 237 191 229 339 178 212 189 283 256 239 283 307 282 277 257 244 242 230 216 213 205 199 192 183 172 164 154 149 145 147 154 154 151 150 140 129 118 86 54 54
258 303 226 229 289 169 144 60 49 53 91 263 232 206 276 246 246 277 270 250 244 237 219 211 199 178 175 166 161 159 153 147 142 146 153 163 160 149 141 144 157 156 49 36
318 308 347 24 50 35 83 88 15 344 311 251 210 214 253 260 259 264 276 274 265 240 200 190 186 188 186 176 171 168 163 161 155 153 157 162 161 160 168 176 184 186 189 271
292 291 295 5 172 191 200 157 174 225 248 280 286 237 255 274 301 309 305 297 307 264 218 205 200 196 191 185 176 173 174 172 164 163 166 161 159 167 181 188 191 199 208 221
205 264 357 18 346 142 152 201 185 163 247 274 265 279 295 308 323 334 336 336 309 279 244 228 212 196 194 191 187 180 176 173 169 165 153 156 162 169 182 186 190 203 217 221
167 262 303 328 26 12 148 151 118 159 218 260 277 269 264 296 304 318 324 307 296 302 289 260 226 206 194 191 188 177 173 175 169 166 173 174 174 179 183 180 191 193 204 220
110 211 303 350 197 219 120 133 162 174 189 206 267 269 233 241 279 296 299 298 288 281 272 272 269 234 190 172 165 171 173 166 168 176 176 166 174 168 168 189 202 208 210 216
151 140 266 262 257 310 198 199 171 193 238 211 236 269 292 228 296 311 317 319 319 306 297 285 282 331 265 210 192 184 189 188 185 177 174 181 184 179 188 208 223 220 221 226
139 124 334 331 331 354 274 246 204 161 154 195 221 266 305 347 332 329 323 320 325 326 330 330 322 298 270 254 239 226 216 208 192 177 179 189 195 200 214 225 236 232 229 234
130 163 199 228 246 224 252 248 208 177 216 236 237 259 286 310 315 316 316 311 307 309 311 310 304 296 282 265 247 241 242 216 198 187 188 201 212 216 221 230 232 234 229 226
129 215 236 254 263 249 243 240 213 213 220 229 253 255 267 284 289 292 298 307 314 314 309 302 297 297 299 293 274 252 243 222 200 197 205 215 216 215 218 222 228 235 239 242
127 204 261 277 255 259 264 251 231 234 237 243 262 269 270 283 289 291 293 294 295 298 296 299 303 304 300 292 284 267 250 232 205 209 219 215 208 211 218 223 223 231 240 249
169 161 198 271 297 322 274 239 214 221 221 210 237 254 284 295 291 279 274 275 278 288 293 294 294 287 285 283 282 269 255 232 211 220 226 216 212 219 224 224 223 232 238 244
168 158 183 275 9 255 253 200 198 224 243 224 243 266 274 269 284 273 253 248 270 285 290 291 295 297 293 286 285 280 258 215 213 226 236 231 226 230 230 224 229 235 238 240
188 169 170 184 259 275 289 236 177 207 267 226 237 260 281 310 322 299 259 238 256 273 281 283 285 291 297 295 291 300 288 236 226 242 249 244 231 233 233 234 236 236 234 242
107 163 172 183 229 254 264 249 172 124 283 238 214 245 253 42 310 284 309 316 304 307 306 305 310 317 315 311 334 48 286 276 260 256 257 258 241 230 232 235 237 237 235 244
135 161 200 215 238 261 261 197 128 182 262 246 212 228 205 209 230 274 315 314 308 307 310 317 325 318 306 309 23 269 277 268 271 279 278 268 253 239 237 239 240 233 237 244
183 183 200 188 224 257 200 145 190 227 272 207 221 218 216 238 268 284 290 296 306 315 321 326 329 318 318 321 271 278 277 280 290 288 284 277 270 257 245 237 245 236 229 237
205 200 198 201 222 248 179 201 225 192 227 236 237 239 228 255 272 282 288 292 296 298 307 312 304 313 319 312 269 265 283 295 297 301 290 288 286 278 263 244 246 244 231 233
251 225 214 253 260 252 238 243 249 225 235 249 242 251 243 255 270 278 284 289 292 295 294 303 310 307 306 305 296 273 286 291 275 278 285 292 293 294 282 262 250 243 236 238
234 187 223 255 273 294 265 231 241 248 251 260 266 253 249 252 264 267 276 281 284 291 298 299 293 290 293 303 303 301 294 265 251 267 278 287 285 279 277 271 254 251 240 236
209 197 206 241 239 229 260 253 229 231 244 245 250 264 254 240 254 265 269 271 277 284 292 296 294 292 294 301 302 304 294 240 229 263 271 269 271 270 270 277 287 280 273 273
Height
1492 1498 1500 1499 1498 1498 1501 1503 1504 1503 1501 1503 1502 1499 1496 1495 1496 1496 1496 1496 1495 1496 1498 1499 1501 1503 1504 1506 1508 1510 1512 1514 1516 1518 1520 1521 1523 1524 1526 1527 1528 1529 1530 1531
1497 1499 1497 1497 1498 1499 1501 1503 1504 1503 1502 1503 1502 1498 1494 1492 1492 1492 1492 1492 1492 1493 1494 1496 1497 1499 1501 1503 1505 1507 1509 1511 1513 1515 1517 1518 1520 1522 1523 1524 1526 1526 1527 1528
1497 1498 1496 1497 1498 1499 1501 1503 1502 1503 1503 1503 1503 1495 1491 1488 1488 1487 1487 1488 1488 1489 1490 1492 1494 1495 1497 1499 1501 1503 1505 1508 1510 1512 1514 1515 1517 1518 1520 1521 1522 1523 1524 1525
1498 1497 1496 1497 1498 1499 1499 1499 1500 1501 1504 1506 1505 1501 1489 1487 1486 1484 1484 1484 1484 1485 1486 1488 1490 1492 1494 1496 1498 1500 1502 1504 1506 1508 1510 1511 1513 1514 1515 1517 1519 1520 1521 1522
1498 1497 1497 1497 1497 1498 1498 1499 1500 1501 1505 1508 1508 1507 1489 1489 1486 1482 1481 1480 1480 1481 1483 1484 1486 1488 1491 1493 1495 1497 1499 1501 1503 1505 1506 1508 1510 1511 1513 1514 1515 1517 1518 1518
1498 1497 1497 1497 1496 1497 1499 1501 1503 1506 1508 1508 1503 1505 1490 1489 1483 1479 1477 1477 1477 1478 1479 1481 1483 1486 1488 1490 1492 1494 1496 1498 1499 1501 1503 1505 1506 1508 1509 1510 1511 1513 1514 1514
1498 1498 1497 1497 1498 1498 1499 1504 1508 1508 1513 1504 1503 1501 1491 1482 1480 1478 1476 1476 1476 1476 1477 1478 1480 1482 1484 1486 1488 1490 1492 1494 1496 1498 1499 1501 1502 1504 1505 1506 1507 1508 1509 1510
1500 1500 1499 1499 1498 1500 1501 1501 1506 1507 1507 1504 1507 1502 1487 1480 1478 1477 1475 1475 1474 1475 1475 1476 1478 1480 1482 1484 1485 1487 1489 1491 1492 1494 1496 1497 1499 1500 1501 1503 1504 1504 1505 1506
1503 1501 1500 1499 1499 1499 1501 1503 1502 1508 1512 1512 1503 1500 1487 1477 1476 1475 1474 1473 1473 1473 1474 1475 1476 1478 1479 1481 1483 1484 1486 1488 1489 1491 1492 1494 1495 1496 1498 1499 1500 1501 1502 1503
1503 1504 1502 1501 1500 1500 1501 1502 1507 1507 1505 1502 1499 1499 1489 1478 1476 1475 1474 1473 1472 1473 1473 1474 1475 1476 1477 1479 1480 1482 1483 1485 1486 1487 1489 1490 1492 1493 1494 1495 1496 1497 1498 1498
1504 1506 1504 1503 1503 1502 1504 1505 1505 1507 1505 1504 1501 1491 1480 1478 1476 1475 1474 1473 1472 1472 1472 1472 1473 1474 1475 1476 1477 1479 1480 1481 1483 1484 1485 1487 1488 1489 1490 1491 1492 1493 1493 1494
1505 1508 1508 1505 1503 1502 1502 1503 1505 1505 1506 1511 1508 1491 1477 1477 1476 1476 1474 1473 1472 1472 1472 1471 1472 1472 1473 1473 1474 1475 1476 1478 1479 1480 1482 1483 1484 1485 1486 1487 1488 1489 1489 1490
1505 1510 1510 1504 1506 1506 1505 1504 1504 1505 1508 1512 1508 1489 1478 1477 1475 1474 1474 1472 1471 1471 1470 1470 1470 1470 1470 1471 1471 1472 1473 1474 1476 1477 1478 1479 1480 1481 1482 1483 1484 1484 1485 1486
1502 1508 1508 1503 1499 1502 1505 1504 1505 1505 1505 1506 1499 1485 1477 1476 1475 1473 1472 1471 1470 1469 1469 1468 1468 1467 1468 1468 1468 1469 1469 1471 1472 1473 1474 1475 1476 1477 1478 1479 1480 1480 1481 1481
1501 1506 1507 1504 1501 1502 1501 1500 1502 1502 1498 1495 1486 1484 1475 1475 1474 1472 1471 1470 1468 1467 1467 1466 1465 1465 1465 1465 1465 1465 1466 1467 1468 1469 1470 1471 1472 1473 1474 1475 1475 1476 1476 1477
1502 1505 1506 1503 1500 1501 1498 1494 1495 1494 1493 1490 1486 1479 1472 1472 1471 1470 1469 1468 1466 1465 1464 1464 1463 1462 1461 1461 1461 1461 1462 1463 1464 1465 1466 1467 1468 1469 1469 1470 1470 1471 1472 1472
1504 1506 1506 1502 1501 1498 1493 1485 1487 1487 1485 1484 1481 1472 1470 1470 1469 1468 1466 1465 1464 1463 1462 1461 1460 1459 1459 1458 1458 1458 1458 1459 1460 1461 1462 1463 1464 1464 1465 1465 1466 1467 1467 1468
1502 1505 1507 1505 1504 1497 1479 1478 1478 1479 1476 1476 1473 1470 1469 1468 1466 1465 1464 1463 1462 1461 1459 1458 1458 1457 1456 1456 1455 1455 1455 1456 1456 1457 1457 1458 1459 1460 1460 1461 1462 1462 1463 1463
1497 1500 1505 1506 1504 1491 1479 1477 1478 1479 1474 1470 1470 1467 1467 1466 1464 1462 1461 1460 1460 1459 1457 1456 1455 1455 1454 1453 1452 1452 1452 1452 1452 1452 1453 1454 1455 1456 1456 1457 1457 1458 1458 1458
1497 1499 1503 1505 1499 1490 1476 1475 1473 1477 1473 1466 1466 1465 1465 1465 1466 1462 1460 1459 1457 1456 1455 1454 1453 1452 1451 1450 1449 1449 1448 1448 1449 1449 1450 1450 1451 1451 1452 1452 1452 1453 1453 1454
1499 1501 1502 1501 1497 1485 1475 1473 1474 1477 1468 1464 1462 1462 1462 1463 1462 1460 1458 1456 1455 1454 1453 1452 1451 1449 1449 1448 1447 1446 1446 1446 1446 1446 1447 1447 1447 1447 1448 1448 1448 1448 1449 1449
1494 1497 1499 1499 1495 1482 1471 1472 1472 1467 1463 1462 1460 1460 1459 1459 1458 1456 1455 1454 1453 1452 1451 1449 1448 1447 1446 1446 1445 1443 1443 1443 1443 1443 1443 1443 1443 1443 1443 1443 1444 1444 1444 1444
1488 1484 1483 1483 1475 1467 1465 1464 1463 1462 1461 1460 1459 1458 1457 1456 1455 1454 1452 1451 1450 1449 1448 1447 1446 1444 1444 1443 1442 1441 1440 1440 1440 1440 1439 1440 1439 1439 1439 1439 1439 1439 1439 1439
1481 1479 1479 1476 1466 1463 1462 1460 1460 1459 1459 1458 1457 1456 1455 1453 1452 1450 1449 1448 1447 1446 1445 1444 1442 1441 1440 1440 1439 1438 1437 1437 1436 1436 1436 1436 1435 1435 1435 1435 1435 1434 1434 1434
1475 1476 1475 1471 1463 1460 1457 1456 1456 1456 1455 1454 1454 1453 1452 1450 1449 1447 1446 1444 1444 1443 1442 1440 1439 1438 1437 1436 1435 1435 1434 1433 1433 1432 1432 1432 1431 1431 1431 1430 1430 1430 1430 1430
1469 1469 1469 1462 1457 1457 1454 1453 1453 1452 1451 1451 1450 1449 1448 1447 1445 1444 1443 1442 1441 1440 1439 1437 1436 1435 1434 1433 1432 1431 1431 1430 1429 1428 1428 1428 1427 1427 1426 1426 1425 1425 1425 1425